User: anonymous   Login
Location: Unspecified
(0.0000°N, 0.0000°E)
Time: 12:07:28
(UTC+00:00)
Language:

USA 112 - Orbit

View from above orbital plane
View from above orbital plane
View from above satellite
View from above satellite

Ground track
Ground track

The orbit data is extracted from the following two-line orbital elements,

1 23609U 95034A   17146.83307876 0.00000000  00000-0  00000-0 0    05
2 23609  63.2221 152.6768 6859795 265.8295  19.6771  2.00613000    02
Epoch (UTC): 26 May 2017 19:59:38
Eccentricity: 0.6859795
inclination: 63.2221°
perigee height: 1961 km
apogee height: 38394 km
right ascension of ascending node: 152.6768°
argument of perigee: 265.8295°
revolutions per day: 2.00613000
mean anomaly at epoch: 19.6771°
orbit number at epoch: 0

The dashed part of the orbit path shows where the satellite is in the earth's shadow,  

DLR